• In Uzbekistan
  • List of Countries
  • For 7 days
  • Water Temperature
  • Satellite Maps
  • Weather Map
  • Weather Widgets
  • user-avatar
    Login

    Hourly Weather Salvador

    Today, 20 August, Sunday

    Time Temperature Precipitation Wind Pressure Humidity
    00:00 +21°C° 0 mm 4 mps 758 mmHg 95%
    01:00 +21°C° 0.1 mm 4 mps 758 mmHg 95%
    02:00 +21°C° 0.1 mm 4 mps 758 mmHg 95%
    03:00 +21°C° 0.1 mm 4 mps 758 mmHg 95%
    04:00 +21°C° 0.1 mm 4 mps 759 mmHg 95%
    05:00 +21°C° 0.1 mm 4 mps 759 mmHg 95%
    06:00 +21°C° 0.1 mm 3 mps 759 mmHg 95%
    07:00 +22°C° 0 mm 3 mps 759 mmHg 91%
    08:00 +24°C° 0 mm 3 mps 760 mmHg 88%
    09:00 +25°C° 0 mm 3 mps 760 mmHg 85%
    10:00 +26°C° 0 mm 3 mps 760 mmHg 78%
    11:00 +27°C° 0 mm 3 mps 759 mmHg 72%
    12:00 +28°C° 0 mm 3 mps 759 mmHg 65%
    13:00 +28°C° 0 mm 3 mps 759 mmHg 65%
    14:00 +28°C° 0 mm 3 mps 758 mmHg 64%
    15:00 +29°C° 0 mm 3 mps 758 mmHg 64%
    16:00 +27°C° 0 mm 3 mps 758 mmHg 71%
    17:00 +25°C° 0 mm 3 mps 758 mmHg 77%
    18:00 +24°C° 0 mm 3 mps 758 mmHg 84%
    19:00 +23°C° 0 mm 2 mps 759 mmHg 87%
    20:00 +23°C° 0 mm 2 mps 759 mmHg 90%
    21:00 +21°C° 0 mm 2 mps 760 mmHg 93%
    22:00 +21°C° 0 mm 2 mps 760 mmHg 94%
    23:00 +21°C° 0 mm 2 mps 760 mmHg 95%

    Tomorrow, 21 August, Monday

    Time Temperature Precipitation Wind Pressure Humidity
    00:00 +21°C° 0 mm 2 mps 760 mmHg 95%
    01:00 +21°C° 0 mm 2 mps 759 mmHg 96%
    02:00 +22°C° 0 mm 1 mps 759 mmHg 96%
    03:00 +22°C° 0 mm 1 mps 759 mmHg 97%
    04:00 +21°C° 0.1 mm 1 mps 759 mmHg 97%
    05:00 +21°C° 0.1 mm 1 mps 759 mmHg 98%
    06:00 +21°C° 0.1 mm 1 mps 759 mmHg 98%
    07:00 +24°C° 0.1 mm 1 mps 760 mmHg 89%
    08:00 +26°C° 0.1 mm 1 mps 760 mmHg 80%
    09:00 +28°C° 0.1 mm 1 mps 761 mmHg 72%
    10:00 +28°C° 0.1 mm 1 mps 760 mmHg 70%
    11:00 +29°C° 0.1 mm 2 mps 760 mmHg 68%
    12:00 +29°C° 0.1 mm 2 mps 760 mmHg 67%
    13:00 +29°C° 0 mm 3 mps 759 mmHg 65%
    14:00 +29°C° 0 mm 3 mps 759 mmHg 64%
    15:00 +29°C° 0 mm 3 mps 758 mmHg 63%
    16:00 +28°C° 0 mm 3 mps 758 mmHg 70%
    17:00 +26°C° 0 mm 3 mps 759 mmHg 78%
    18:00 +24°C° 0 mm 3 mps 759 mmHg 85%
    19:00 +24°C° 0 mm 3 mps 760 mmHg 88%
    20:00 +22°C° 0 mm 3 mps 760 mmHg 91%
    21:00 +22°C° 0 mm 3 mps 761 mmHg 94%
    22:00 +22°C° 0.1 mm 4 mps 761 mmHg 95%
    23:00 +22°C° 0.1 mm 4 mps 761 mmHg 96%

    Day after tomorrow, 22 August, Tuesday

    Time Temperature Precipitation Wind Pressure Humidity
    00:00 +22°C° 0.1 mm 4 mps 761 mmHg 96%
    01:00 +22°C° 0.3 mm 4 mps 760 mmHg 96%
    02:00 +22°C° 0.3 mm 4 mps 760 mmHg 97%
    03:00 +22°C° 0.3 mm 4 mps 760 mmHg 97%
    04:00 +22°C° 0.2 mm 5 mps 760 mmHg 97%
    05:00 +22°C° 0.2 mm 5 mps 760 mmHg 97%
    06:00 +22°C° 0.2 mm 5 mps 760 mmHg 97%
    07:00 +23°C° 0.2 mm 5 mps 761 mmHg 91%
    08:00 +25°C° 0.2 mm 5 mps 761 mmHg 85%
    09:00 +27°C° 0.2 mm 6 mps 761 mmHg 80%
    10:00 +28°C° 0.1 mm 6 mps 761 mmHg 74%
    11:00 +28°C° 0.1 mm 6 mps 761 mmHg 68%
    12:00 +29°C° 0.1 mm 6 mps 760 mmHg 63%
    13:00 +29°C° 0.1 mm 6 mps 760 mmHg 64%
    14:00 +28°C° 0.1 mm 6 mps 759 mmHg 66%
    15:00 +28°C° 0.1 mm 6 mps 759 mmHg 68%
    16:00 +26°C° 0.1 mm 6 mps 759 mmHg 74%
    17:00 +24°C° 0.1 mm 6 mps 759 mmHg 81%
    18:00 +22°C° 0.1 mm 6 mps 760 mmHg 87%
    19:00 +22°C° 0.2 mm 6 mps 760 mmHg 89%
    20:00 +22°C° 0.2 mm 6 mps 760 mmHg 91%
    21:00 +22°C° 0.2 mm 6 mps 761 mmHg 94%
    22:00 +22°C° 0.5 mm 6 mps 761 mmHg 94%
    23:00 +22°C° 0.5 mm 6 mps 760 mmHg 94%

    23 August, Wednesday

    Time Temperature Precipitation Wind Pressure Humidity
    00:00 +22°C° 0.5 mm 6 mps 760 mmHg 94%
    01:00 +22°C° 0.2 mm 6 mps 760 mmHg 95%
    02:00 +22°C° 0.2 mm 6 mps 759 mmHg 95%
    03:00 +21°C° 0.2 mm 5 mps 759 mmHg 95%
    04:00 +21°C° 0.2 mm 5 mps 759 mmHg 95%
    05:00 +21°C° 0.2 mm 5 mps 759 mmHg 95%
    06:00 +22°C° 0.2 mm 5 mps 760 mmHg 95%
    07:00 +23°C° 0.2 mm 6 mps 760 mmHg 92%
    08:00 +24°C° 0.2 mm 6 mps 761 mmHg 88%
    09:00 +26°C° 0.2 mm 6 mps 761 mmHg 85%
    10:00 +26°C° 0.2 mm 6 mps 761 mmHg 80%
    11:00 +27°C° 0.2 mm 6 mps 760 mmHg 76%
    12:00 +28°C° 0.2 mm 6 mps 760 mmHg 72%
    13:00 +28°C° 0.2 mm 6 mps 759 mmHg 73%
    14:00 +28°C° 0.2 mm 6 mps 759 mmHg 73%
    15:00 +27°C° 0.2 mm 6 mps 759 mmHg 74%
    16:00 +26°C° 0.2 mm 6 mps 759 mmHg 80%
    17:00 +24°C° 0.2 mm 6 mps 759 mmHg 85%
    18:00 +23°C° 0.2 mm 6 mps 760 mmHg 91%
    19:00 +22°C° 0.3 mm 6 mps 760 mmHg 93%
    20:00 +22°C° 0.3 mm 6 mps 760 mmHg 94%
    21:00 +22°C° 0.3 mm 6 mps 761 mmHg 95%
    22:00 +22°C° 0.3 mm 6 mps 760 mmHg 95%
    23:00 +22°C° 0.3 mm 6 mps 760 mmHg 95%

    24 August, Thursday

    Time Temperature Precipitation Wind Pressure Humidity
    00:00 +22°C° 0.3 mm 6 mps 760 mmHg 94%
    01:00 +22°C° 0.2 mm 6 mps 760 mmHg 94%
    02:00 +22°C° 0.2 mm 6 mps 759 mmHg 94%
    03:00 +22°C° 0.2 mm 5 mps 759 mmHg 94%
    04:00 +22°C° 0.1 mm 5 mps 759 mmHg 94%
    05:00 +22°C° 0.1 mm 5 mps 760 mmHg 93%
    06:00 +22°C° 0.1 mm 5 mps 760 mmHg 92%
    07:00 +23°C° 0.1 mm 5 mps 760 mmHg 86%
    08:00 +24°C° 0.1 mm 6 mps 761 mmHg 81%
    09:00 +26°C° 0.1 mm 6 mps 761 mmHg 75%
    10:00 +27°C° 0 mm 6 mps 761 mmHg 70%
    11:00 +28°C° 0 mm 5 mps 761 mmHg 65%
    12:00 +29°C° 0 mm 5 mps 760 mmHg 60%
    13:00 +28°C° 0 mm 5 mps 760 mmHg 61%
    14:00 +28°C° 0 mm 6 mps 760 mmHg 62%
    15:00 +28°C° 0 mm 6 mps 759 mmHg 63%
    16:00 +26°C° 0.1 mm 5 mps 760 mmHg 71%
    17:00 +25°C° 0.1 mm 5 mps 760 mmHg 79%
    18:00 +22°C° 0.1 mm 5 mps 760 mmHg 87%
    19:00 +22°C° 0.1 mm 5 mps 761 mmHg 89%
    20:00 +22°C° 0.1 mm 5 mps 761 mmHg 92%
    21:00 +21°C° 0.1 mm 5 mps 761 mmHg 94%
    22:00 +21°C° 0.2 mm 5 mps 761 mmHg 95%
    23:00 +21°C° 0.2 mm 6 mps 761 mmHg 95%

    25 August, Friday

    Time Temperature Precipitation Wind Pressure Humidity
    00:00 +21°C° 0.2 mm 6 mps 760 mmHg 95%
    01:00 +21°C° 0.1 mm 5 mps 760 mmHg 95%
    02:00 +21°C° 0.1 mm 5 mps 760 mmHg 94%
    03:00 +21°C° 0.1 mm 5 mps 759 mmHg 94%
    04:00 +21°C° 0 mm 5 mps 760 mmHg 94%
    05:00 +21°C° 0 mm 5 mps 760 mmHg 93%
    06:00 +21°C° 0 mm 5 mps 760 mmHg 93%
    07:00 +22°C° 0 mm 5 mps 761 mmHg 84%
    08:00 +24°C° 0 mm 6 mps 761 mmHg 76%
    09:00 +27°C° 0 mm 6 mps 761 mmHg 67%
    10:00 +27°C° 0 mm 6 mps 761 mmHg 63%
    11:00 +28°C° 0 mm 6 mps 761 mmHg 60%
    12:00 +29°C° 0 mm 6 mps 760 mmHg 56%
    13:00 +28°C° 0 mm 6 mps 760 mmHg 57%
    14:00 +28°C° 0 mm 5 mps 759 mmHg 58%
    15:00 +28°C° 0 mm 5 mps 759 mmHg 60%
    16:00 +26°C° 0.1 mm 5 mps 759 mmHg 68%
    17:00 +25°C° 0.1 mm 5 mps 759 mmHg 76%
    18:00 +22°C° 0.1 mm 5 mps 760 mmHg 84%
    19:00 +22°C° 0.2 mm 5 mps 760 mmHg 87%
    20:00 +22°C° 0.2 mm 5 mps 760 mmHg 90%
    21:00 +21°C° 0.2 mm 6 mps 761 mmHg 93%
    22:00 +21°C° 0.2 mm 5 mps 761 mmHg 93%
    23:00 +21°C° 0.2 mm 5 mps 760 mmHg 94%
    Show more